Guthrie, OK

3:47 PM CST on February 08, 2016 (GMT -0600)
Guthrie Municipal

Weather History for KGOK - November, 2011

Change the Weather History Date:

Friday, November 18, 2011

  Actual Average Record
Temperature  
Mean Temperature 54 °F -  
Max Temperature 62 °F 62 °F 76 °F (1981)
Min Temperature 45 °F 40 °F 16 °F (1951)
Degree Days  
Heating Degree Days 12    
Growing Degree Days 4 (Base 50)    
Moisture  
Dew Point 35 °F    
Average Humidity 50    
Maximum Humidity 70    
Minimum Humidity 38    
Precipitation  
Precipitation 0.00 in - - ()
Sea Level Pressure  
Sea Level Pressure 29.93 in    
Wind  
Wind Speed 20 mph (South)    
Max Wind Speed 26 mph    
Max Gust Speed 39 mph    
Visibility 10 miles    
Events      
Averages and records for this station are not official NWS values.
T = Trace of Precipitation, MM = Missing Value Source: NWS Daily Summary

Daily Weather History Graph

Daily Weather History Graph

Search for Another Location

Airport or City:

Trip Planner

Search our weather history database for the weather conditions in past years. The results will help you decide how hot, cold, wet, or windy it might be!

Date:

Astronomy

Nov. 18, 2011 Rise Set
Actual Time 7:08 AM CST 5:20 PM CST
Civil Twilight 6:41 AM CST 5:48 PM CST
Nautical Twilight 6:10 AM CST 6:19 PM CST
Astronomical Twilight 5:39 AM CST 6:49 PM CST
Moon No Moon Rise 12:54 PM CST (11/18)
Length of Visible Light 11h 06m
Length of Day
10h 12m
Waning Gibbous, 49% of the Moon is Illuminated
Nov 18
Waning Gibbous
Nov 25
New
Dec 2
First Quarter
Dec 10
Full
Dec 17
Last Quarter

Hourly Weather History & Observations

Time (CST) Temp. Windchill Dew Point Humidity Pressure Visibility Wind Dir Wind Speed Gust Speed Precip Events Conditions
12:53 AM 46.0 °F 39.0 °F 25.0 °F 44% 30.11 in 10.0 mi South 17.3 mph 24.2 mph N/A   Clear
1:53 AM 46.0 °F 39.0 °F 25.0 °F 44% 30.09 in 10.0 mi South 17.3 mph 27.6 mph N/A   Clear
2:53 AM 45.0 °F 37.6 °F 27.0 °F 49% 30.08 in 10.0 mi South 17.3 mph 23.0 mph N/A   Clear
3:53 AM 45.0 °F 36.9 °F 26.1 °F 48% 30.06 in 10.0 mi South 20.7 mph 27.6 mph N/A   Clear
4:53 AM 45.0 °F 36.6 °F 27.0 °F 49% 30.05 in 10.0 mi South 21.9 mph 33.4 mph N/A   Clear
5:53 AM 45.0 °F 36.6 °F 27.0 °F 49% 30.05 in 10.0 mi South 21.9 mph 28.8 mph N/A   Clear
6:53 AM 45.0 °F 37.6 °F 27.0 °F 49% 30.05 in 10.0 mi South 17.3 mph 28.8 mph N/A   Clear
7:53 AM 46.0 °F 38.3 °F 28.0 °F 50% 30.03 in 10.0 mi South 20.7 mph 33.4 mph N/A   Clear
8:53 AM 48.9 °F - 28.0 °F 44% 30.03 in 10.0 mi South 26.5 mph 39.1 mph N/A   Clear
9:53 AM 52.0 °F - 30.0 °F 43% 30.02 in 10.0 mi South 25.3 mph 32.2 mph N/A   Scattered Clouds
10:53 AM 55.0 °F - 32.0 °F 42% 30.00 in 10.0 mi SSW 21.9 mph 33.4 mph N/A   Clear
11:53 AM 57.9 °F - 33.1 °F 39% 29.94 in 10.0 mi South 21.9 mph 35.7 mph N/A   Clear
12:53 PM 60.1 °F - 34.0 °F 38% 29.88 in 10.0 mi South 26.5 mph 35.7 mph N/A   Clear
1:53 PM 61.0 °F - 36.0 °F 39% 29.86 in 10.0 mi South 21.9 mph 31.1 mph N/A   Clear
2:53 PM 60.1 °F - 37.9 °F 44% 29.83 in 10.0 mi South 23.0 mph 29.9 mph N/A   Clear
3:53 PM 62.1 °F - 39.9 °F 44% 29.81 in 10.0 mi South 23.0 mph 33.4 mph N/A   Clear
6:53 PM 55.9 °F - 42.1 °F 60% 29.79 in 10.0 mi SSE 11.5 mph 23.0 mph N/A   Clear
7:53 PM 57.0 °F - 44.1 °F 62% 29.78 in 10.0 mi South 19.6 mph 27.6 mph N/A   Clear
8:53 PM 57.0 °F - 46.0 °F 67% 29.78 in 10.0 mi South 19.6 mph 27.6 mph N/A   Clear
9:53 PM 57.9 °F - 46.9 °F 67% 29.76 in 10.0 mi South 19.6 mph 28.8 mph N/A   Clear
10:53 PM 57.9 °F - 48.0 °F 70% 29.75 in 10.0 mi South 21.9 mph 32.2 mph N/A   Clear
11:53 PM 59.0 °F - 48.9 °F 69% 29.74 in 10.0 mi South 24.2 mph 32.2 mph N/A   Clear